{"data":{"norad_id":57774,"epoch":"2026-09-20T02:34:00.516288Z","epoch_age_seconds":165238,"freshness":"FRESH","line1":"1 57774U 23134D   26263.10695042  .00001400  00000+0  60404-4 0  9991","line2":"2 57774  43.0009 179.6640 0001271 271.2554  88.8152 15.27578175169206","mean_motion":15.27578175,"eccentricity":0.0001271,"inclination_deg":43.0009,"raan_deg":179.664,"arg_perigee_deg":271.2554,"mean_anomaly_deg":88.8152,"bstar":6.0404e-5,"rev_number":16920,"period_min":94.266861334282,"perigee_km":482.18250330426,"apogee_km":483.92661819901,"semimajor_km":6861.1915607516,"source":"CELESTRAK","updated_at":"2026-09-21T09:00:33.683895Z"}}